User: anonymous   Login
Location: Unspecified
(0.0000°N, 0.0000°E)
Time: 02:18:47
(UTC+00:00)
Language:

STRAND 1 - Orbit

View from above orbital plane
View from above orbital plane
View from above satellite
View from above satellite

Ground track
Ground track

The orbit data is extracted from the following two-line orbital elements,

1 39090U 13009E   24107.47424383  .00000914  00000-0  32930-3 0  9997
2 39090  98.3833 297.4599 0010058  78.9855 281.2462 14.35976030583388
Epoch (UTC): 16 April 2024 11:22:54
Eccentricity: 0.0010058
inclination: 98.3833°
perigee height: 764 km
apogee height: 779 km
right ascension of ascending node: 297.4599°
argument of perigee: 78.9855°
revolutions per day: 14.35976030
mean anomaly at epoch: 281.2462°
orbit number at epoch: 58338

The dashed part of the orbit path shows where the satellite is in the earth's shadow,  

DLR